Time,TemperatureF,DewpointF,PressureIn,WindDirection,WindDirectionDegrees,WindSpeedMPH,WindSpeedGustMPH,Humidity,HourlyPrecipIn,Conditions,Clouds,dailyrainin,SoftwareType,DateUTC
2013-09-24 00:00:00,50.0,42.0,-100.00,NNW,344,0.0,6.0,75,0.00,,,-99.99,,2013-09-24 04:00:00,
2013-09-24 00:44:00,50.0,42.0,-100.00,NNW,344,0.0,6.0,75,0.00,,,-99.99,,2013-09-24 04:44:00,
2013-09-24 00:54:00,50.0,42.0,-100.00,NNW,344,0.0,6.0,75,0.00,,,-99.99,,2013-09-24 04:54:00,
2013-09-24 01:00:00,48.0,42.0,-100.00,North,0,0.0,3.0,78,0.00,,,-99.99,,2013-09-24 05:00:00,
2013-09-24 01:43:00,48.0,42.0,-100.00,North,0,0.0,3.0,78,0.00,,,-99.99,,2013-09-24 05:43:00,
2013-09-24 01:53:00,48.0,42.0,-100.00,North,0,0.0,3.0,78,0.00,,,-99.99,,2013-09-24 05:53:00,
2013-09-24 02:00:00,48.0,42.0,-100.00,NNW,346,1.0,4.0,80,0.00,,,-99.99,,2013-09-24 06:00:00,
2013-09-24 02:42:00,48.0,42.0,-100.00,NNW,346,1.0,4.0,80,0.00,,,-99.99,,2013-09-24 06:42:00,
2013-09-24 02:52:00,48.0,42.0,-100.00,NNW,346,1.0,4.0,80,0.00,,,-99.99,,2013-09-24 06:52:00,
2013-09-24 03:00:00,47.0,41.0,-100.00,NNW,335,0.0,4.0,82,0.00,,,-99.99,,2013-09-24 07:00:00,
2013-09-24 03:43:00,47.0,41.0,-100.00,NNW,335,0.0,4.0,82,0.00,,,-99.99,,2013-09-24 07:43:00,
2013-09-24 03:52:00,47.0,41.0,-100.00,NNW,335,0.0,4.0,82,0.00,,,-99.99,,2013-09-24 07:52:00,
2013-09-24 04:00:00,46.0,41.0,-100.00,NW,318,1.0,4.0,84,0.00,,,-99.99,,2013-09-24 08:00:00,
2013-09-24 04:42:00,46.0,41.0,-100.00,NW,318,1.0,4.0,84,0.00,,,-99.99,,2013-09-24 08:42:00,
2013-09-24 04:52:00,46.0,41.0,-100.00,NW,318,1.0,4.0,84,0.00,,,-99.99,,2013-09-24 08:52:00,
2013-09-24 05:00:00,45.0,41.0,-100.00,NW,318,1.0,6.0,85,0.00,,,-99.99,,2013-09-24 09:00:00,
2013-09-24 05:43:00,45.0,41.0,-100.00,NW,318,1.0,6.0,85,0.00,,,-99.99,,2013-09-24 09:43:00,
2013-09-24 05:54:00,45.0,41.0,-100.00,NW,318,1.0,6.0,85,0.00,,,-99.99,,2013-09-24 09:54:00,
2013-09-24 06:00:00,45.0,41.0,-100.00,NW,321,3.0,7.0,84,0.00,,,-99.99,,2013-09-24 10:00:00,
2013-09-24 06:42:00,45.0,41.0,-100.00,NW,321,3.0,7.0,84,0.00,,,-99.99,,2013-09-24 10:42:00,
2013-09-24 06:53:00,45.0,41.0,-100.00,NW,321,3.0,7.0,84,0.00,,,-99.99,,2013-09-24 10:53:00,
2013-09-24 07:00:00,45.0,41.0,-100.00,NE,47,2.0,5.0,86,0.00,,,-99.99,,2013-09-24 11:00:00,
2013-09-24 07:42:00,45.0,41.0,-100.00,NE,47,2.0,5.0,86,0.00,,,-99.99,,2013-09-24 11:42:00,
2013-09-24 07:52:00,45.0,41.0,-100.00,NE,47,2.0,5.0,86,0.00,,,-99.99,,2013-09-24 11:52:00,
2013-09-24 08:00:00,47.0,41.0,-100.00,North,3,6.0,8.0,80,0.00,,,-99.99,,2013-09-24 12:00:00,
2013-09-24 08:42:00,47.0,41.0,-100.00,North,3,6.0,8.0,80,0.00,,,-99.99,,2013-09-24 12:42:00,
2013-09-24 08:52:00,47.0,41.0,-100.00,North,3,6.0,8.0,80,0.00,,,-99.99,,2013-09-24 12:52:00,
2013-09-24 09:00:00,52.0,41.0,-100.00,NE,43,5.0,9.0,67,0.00,,,-99.99,,2013-09-24 13:00:00,
2013-09-24 09:42:00,52.0,41.0,-100.00,NE,43,5.0,9.0,67,0.00,,,-99.99,,2013-09-24 13:42:00,
2013-09-24 09:52:00,52.0,41.0,-100.00,NE,43,5.0,9.0,67,0.00,,,-99.99,,2013-09-24 13:52:00,
2013-09-24 10:00:00,57.0,42.0,-100.00,NW,313,2.0,7.0,58,0.00,,,-99.99,,2013-09-24 14:00:00,
2013-09-24 10:42:00,57.0,42.0,-100.00,NW,313,2.0,7.0,58,0.00,,,-99.99,,2013-09-24 14:42:00,
2013-09-24 10:52:00,57.0,42.0,-100.00,NW,313,2.0,7.0,58,0.00,,,-99.99,,2013-09-24 14:52:00,
2013-09-24 11:00:00,60.0,42.0,-100.00,North,354,6.0,10.0,52,0.00,,,-99.99,,2013-09-24 15:00:00,
2013-09-24 11:43:00,60.0,42.0,-100.00,North,354,6.0,10.0,52,0.00,,,-99.99,,2013-09-24 15:43:00,
2013-09-24 11:54:00,60.0,42.0,-100.00,North,354,6.0,10.0,52,0.00,,,-99.99,,2013-09-24 15:54:00,
2013-09-24 12:00:00,63.0,43.0,-100.00,West,278,3.0,12.0,49,0.00,,,-99.99,,2013-09-24 16:00:00,
2013-09-24 12:43:00,63.0,43.0,-100.00,West,278,3.0,12.0,49,0.00,,,-99.99,,2013-09-24 16:43:00,
2013-09-24 12:53:00,63.0,43.0,-100.00,West,278,3.0,12.0,49,0.00,,,-99.99,,2013-09-24 16:53:00,
2013-09-24 13:00:00,65.0,43.0,-100.00,NNW,339,3.0,11.0,44,0.00,,,-99.99,,2013-09-24 17:00:00,
2013-09-24 13:43:00,65.0,43.0,-100.00,NNW,339,3.0,11.0,44,0.00,,,-99.99,,2013-09-24 17:43:00,
2013-09-24 13:54:00,65.0,43.0,-100.00,NNW,339,3.0,11.0,44,0.00,,,-99.99,,2013-09-24 17:54:00,
2013-09-24 14:00:00,67.0,42.0,-100.00,NW,309,5.0,13.0,40,0.00,,,-99.99,,2013-09-24 18:00:00,
2013-09-24 14:42:00,67.0,42.0,-100.00,NW,309,5.0,13.0,40,0.00,,,-99.99,,2013-09-24 18:42:00,
2013-09-24 14:53:00,67.0,42.0,-100.00,NW,309,5.0,13.0,40,0.00,,,-99.99,,2013-09-24 18:53:00,
2013-09-24 15:00:00,68.0,43.0,-100.00,West,279,6.0,11.0,40,0.00,,,-99.99,,2013-09-24 19:00:00,
2013-09-24 15:42:00,68.0,43.0,-100.00,West,279,6.0,11.0,40,0.00,,,-99.99,,2013-09-24 19:42:00,
2013-09-24 15:52:00,68.0,43.0,-100.00,West,279,6.0,11.0,40,0.00,,,-99.99,,2013-09-24 19:52:00,
2013-09-24 16:00:00,70.0,43.0,-100.00,NE,39,3.0,13.0,38,0.00,,,-99.99,,2013-09-24 20:00:00,
2013-09-24 16:42:00,70.0,43.0,-100.00,NE,39,3.0,13.0,38,0.00,,,-99.99,,2013-09-24 20:42:00,
2013-09-24 16:52:00,70.0,43.0,-100.00,NE,39,3.0,13.0,38,0.00,,,-99.99,,2013-09-24 20:52:00,
2013-09-24 17:00:00,69.0,43.0,-100.00,NW,318,8.0,10.0,38,0.00,,,-99.99,,2013-09-24 21:00:00,
2013-09-24 17:44:00,69.0,43.0,-100.00,NW,318,8.0,10.0,38,0.00,,,-99.99,,2013-09-24 21:44:00,
2013-09-24 17:54:00,69.0,43.0,-100.00,NW,318,8.0,10.0,38,0.00,,,-99.99,,2013-09-24 21:54:00,
2013-09-24 18:00:00,69.0,46.0,-100.00,West,277,3.0,11.0,44,0.00,,,-99.99,,2013-09-24 22:00:00,
2013-09-24 18:43:00,69.0,46.0,-100.00,West,277,3.0,11.0,44,0.00,,,-99.99,,2013-09-24 22:43:00,
2013-09-24 18:54:00,69.0,46.0,-100.00,West,277,3.0,11.0,44,0.00,,,-99.99,,2013-09-24 22:54:00,
2013-09-24 19:00:00,61.0,50.0,-100.00,West,262,0.0,7.0,66,0.00,,,-99.99,,2013-09-24 23:00:00,
2013-09-24 19:43:00,61.0,50.0,-100.00,West,262,0.0,7.0,66,0.00,,,-99.99,,2013-09-24 23:43:00,
2013-09-24 19:53:00,61.0,50.0,-100.00,West,262,0.0,7.0,66,0.00,,,-99.99,,2013-09-24 23:53:00,
2013-09-24 20:00:00,56.0,50.0,-100.00,SSW,207,0.0,3.0,81,0.00,,,-99.99,,2013-09-25 00:00:00,
2013-09-24 20:42:00,56.0,50.0,-100.00,SSW,207,0.0,3.0,81,0.00,,,-99.99,,2013-09-25 00:42:00,
2013-09-24 20:52:00,56.0,50.0,-100.00,SSW,207,0.0,3.0,81,0.00,,,-99.99,,2013-09-25 00:52:00,
2013-09-24 21:00:00,55.0,49.0,-100.00,SSW,208,0.0,5.0,80,0.00,,,-99.99,,2013-09-25 01:00:00,
2013-09-24 21:42:00,55.0,49.0,-100.00,SSW,208,0.0,5.0,80,0.00,,,-99.99,,2013-09-25 01:42:00,
2013-09-24 21:52:00,55.0,49.0,-100.00,SSW,208,0.0,5.0,80,0.00,,,-99.99,,2013-09-25 01:52:00,
2013-09-24 22:00:00,54.0,49.0,-100.00,South,169,1.0,3.0,83,0.00,,,-99.99,,2013-09-25 02:00:00,
2013-09-24 22:42:00,54.0,49.0,-100.00,South,169,1.0,3.0,83,0.00,,,-99.99,,2013-09-25 02:42:00,
2013-09-24 22:52:00,54.0,49.0,-100.00,South,169,1.0,3.0,83,0.00,,,-99.99,,2013-09-25 02:52:00,
2013-09-24 23:00:00,52.0,48.0,-100.00,SW,229,0.0,3.0,86,0.00,,,-99.99,,2013-09-25 03:00:00,
2013-09-24 23:45:00,52.0,48.0,-100.00,SW,229,0.0,3.0,86,0.00,,,-99.99,,2013-09-25 03:45:00,
2013-09-24 23:55:00,52.0,48.0,-100.00,SW,229,0.0,3.0,86,0.00,,,-99.99,,2013-09-25 03:55:00,